{"data":{"norad_id":63864,"epoch":"2026-05-25T03:58:59.024352Z","epoch_age_seconds":56734,"freshness":"FRESH","line1":"1 63864U 25094A   26145.16596093  .00002773  00000+0  24002-3 0  9993","line2":"2 63864  70.0023  41.8389 0002681 269.5051  90.5801 14.98336947 58650","mean_motion":14.98336947,"eccentricity":0.0002681,"inclination_deg":70.0023,"raan_deg":41.8389,"arg_perigee_deg":269.5051,"mean_anomaly_deg":90.5801,"bstar":0.00024002,"rev_number":5865,"period_min":96.10655352811,"perigee_km":570.1710670485,"apogee_km":573.89774895747,"semimajor_km":6950.171408003,"source":"CELESTRAK","updated_at":"2026-05-25T13:38:20.168031Z"}}